TimeEDT,TemperatureF,Dew PointF,Humidity,Sea Level PressureIn,VisibilityMPH,Wind Direction,Wind SpeedMPH,Gust SpeedMPH,PrecipitationIn,Events,Conditions,WindDirDegrees,DateUTC
12:17 AM,66.2,52.3,61,29.84,10.0,SSE,12.7,25.3,N/A,,Overcast,160,2013-09-29 04:17:00
12:37 AM,66.2,52.5,61,29.83,10.0,SSE,12.7,23.0,N/A,,Overcast,150,2013-09-29 04:37:00
12:57 AM,66.4,52.2,60,29.82,10.0,SSE,10.4,21.9,N/A,,Overcast,160,2013-09-29 04:57:00
1:17 AM,66.0,52.9,63,29.82,10.0,SSE,12.7,18.4,N/A,,Overcast,160,2013-09-29 05:17:00
1:38 AM,65.5,53.4,65,29.82,10.0,South,10.4,17.3,N/A,,Overcast,180,2013-09-29 05:38:00
1:57 AM,66.9,53.2,61,29.83,10.0,SSW,20.7,26.5,N/A,,Overcast,210,2013-09-29 05:57:00
2:17 AM,63.3,57.2,80,29.84,7.0,SSW,12.7,23.0,0.01,Rain,Rain,210,2013-09-29 06:17:00
2:38 AM,62.8,57.6,83,29.83,10.0,SSW,10.4,17.3,0.02,Rain,Light Rain,210,2013-09-29 06:38:00
2:57 AM,62.2,57.9,86,29.84,7.0,SW,12.7,18.4,0.02,,Overcast,220,2013-09-29 06:57:00
3:17 AM,61.2,59.2,93,29.84,5.0,SW,10.4,16.1,0.02,Rain,Light Rain,220,2013-09-29 07:17:00
3:37 AM,61.0,60.3,97,29.84,2.5,WSW,11.5,19.6,0.05,Rain,Rain,250,2013-09-29 07:37:00
3:57 AM,60.4,59.9,98,29.84,5.0,West,13.8,20.7,0.07,Rain,Light Rain,270,2013-09-29 07:57:00
4:18 AM,60.1,59.5,98,29.85,7.0,West,15.0,21.9,0.02,Rain,Rain,270,2013-09-29 08:18:00
4:37 AM,55.8,54.0,94,29.87,7.0,NW,11.5,26.5,0.04,Rain,Light Rain,320,2013-09-29 08:37:00
4:57 AM,55.0,54.0,96,29.85,10.0,NNW,8.1,-,0.04,Rain,Light Rain,330,2013-09-29 08:57:00
5:18 AM,54.9,53.8,96,29.87,10.0,WNW,5.8,-,N/A,,Overcast,300,2013-09-29 09:18:00
5:37 AM,54.9,53.6,96,29.88,10.0,WNW,8.1,-,0.01,,Overcast,300,2013-09-29 09:37:00
5:57 AM,55.4,53.6,94,29.89,10.0,West,6.9,-,0.01,,Overcast,280,2013-09-29 09:57:00
6:18 AM,55.4,53.6,94,29.91,10.0,West,5.8,-,N/A,,Mostly Cloudy,270,2013-09-29 10:18:00
6:37 AM,55.0,53.6,95,29.90,10.0,WNW,6.9,-,N/A,,Scattered Clouds,290,2013-09-29 10:37:00
6:57 AM,55.0,53.6,95,29.91,10.0,WNW,6.9,-,N/A,,Scattered Clouds,290,2013-09-29 10:57:00
7:18 AM,55.0,53.8,96,29.91,10.0,West,4.6,-,N/A,,Scattered Clouds,280,2013-09-29 11:18:00
7:37 AM,55.0,53.6,95,29.93,10.0,WNW,9.2,-,N/A,,Scattered Clouds,290,2013-09-29 11:37:00
7:57 AM,54.7,52.2,91,29.92,10.0,WNW,6.9,-,N/A,,Clear,290,2013-09-29 11:57:00
8:18 AM,54.5,52.3,92,29.93,10.0,West,6.9,-,N/A,,Clear,280,2013-09-29 12:18:00
8:37 AM,54.1,51.8,92,29.94,10.0,West,9.2,-,N/A,,Clear,280,2013-09-29 12:37:00
8:57 AM,53.8,51.4,92,29.95,10.0,West,8.1,-,N/A,,Clear,280,2013-09-29 12:57:00
9:18 AM,54.7,52.0,91,29.96,10.0,WNW,10.4,-,N/A,,Clear,290,2013-09-29 13:18:00
9:37 AM,55.0,51.8,89,29.97,10.0,WNW,9.2,17.3,N/A,,Clear,290,2013-09-29 13:37:00
9:57 AM,55.8,51.4,85,29.97,10.0,WNW,9.2,-,N/A,,Clear,290,2013-09-29 13:57:00
10:17 AM,56.8,50.4,79,29.97,10.0,WNW,9.2,-,N/A,,Clear,290,2013-09-29 14:17:00
10:37 AM,57.2,49.8,76,29.98,10.0,WNW,10.4,16.1,N/A,,Clear,290,2013-09-29 14:37:00
10:58 AM,57.7,48.7,72,29.98,10.0,WNW,10.4,-,N/A,,Scattered Clouds,290,2013-09-29 14:58:00
11:17 AM,57.7,48.9,72,29.99,10.0,West,8.1,-,N/A,,Scattered Clouds,280,2013-09-29 15:17:00
11:37 AM,57.4,49.3,74,29.99,10.0,West,9.2,18.4,N/A,,Overcast,280,2013-09-29 15:37:00
11:58 AM,58.5,48.7,70,30.00,10.0,NW,4.6,-,N/A,,Mostly Cloudy,320,2013-09-29 15:58:00
12:17 PM,58.8,48.7,69,30.00,10.0,WNW,6.9,-,N/A,,Scattered Clouds,290,2013-09-29 16:17:00
12:37 PM,58.1,49.3,72,30.00,10.0,WNW,8.1,-,N/A,,Mostly Cloudy,290,2013-09-29 16:37:00
12:58 PM,59.0,49.8,72,30.01,10.0,West,9.2,-,N/A,,Mostly Cloudy,260,2013-09-29 16:58:00
1:17 PM,59.0,49.5,71,30.01,10.0,West,8.1,-,N/A,,Scattered Clouds,260,2013-09-29 17:17:00
1:37 PM,59.7,50.2,71,30.01,10.0,WSW,6.9,-,N/A,,Scattered Clouds,250,2013-09-29 17:37:00
1:58 PM,59.5,50.0,71,30.00,10.0,WSW,8.1,-,N/A,,Scattered Clouds,250,2013-09-29 17:58:00
2:17 PM,59.9,50.5,71,30.00,10.0,West,6.9,-,N/A,,Clear,260,2013-09-29 18:17:00
2:38 PM,59.5,50.0,71,30.00,10.0,SW,11.5,-,N/A,,Clear,230,2013-09-29 18:38:00
2:57 PM,59.0,49.8,72,29.99,10.0,WSW,9.2,-,N/A,,Clear,240,2013-09-29 18:57:00
3:18 PM,59.2,50.0,72,29.99,10.0,SW,4.6,-,N/A,,Clear,220,2013-09-29 19:18:00
3:38 PM,59.4,50.4,72,29.99,10.0,SW,6.9,-,N/A,,Clear,220,2013-09-29 19:38:00
3:57 PM,59.0,49.1,70,29.99,10.0,SW,9.2,-,N/A,,Clear,230,2013-09-29 19:57:00
4:18 PM,59.7,48.9,67,29.99,10.0,SW,5.8,-,N/A,,Clear,230,2013-09-29 20:18:00
4:38 PM,59.9,50.0,70,29.99,10.0,WSW,9.2,-,N/A,,Clear,240,2013-09-29 20:38:00
4:57 PM,60.8,51.3,71,29.99,10.0,WSW,9.2,-,N/A,,Clear,240,2013-09-29 20:57:00
5:18 PM,60.8,50.4,68,29.99,10.0,WSW,5.8,-,N/A,,Clear,250,2013-09-29 21:18:00
5:38 PM,60.8,49.1,65,29.99,10.0,WSW,9.2,-,N/A,,Clear,250,2013-09-29 21:38:00
5:57 PM,60.8,48.9,65,29.99,10.0,WSW,9.2,-,N/A,,Clear,250,2013-09-29 21:57:00
6:18 PM,59.9,48.7,67,29.99,10.0,West,8.1,-,N/A,,Clear,260,2013-09-29 22:18:00
6:37 PM,59.5,48.9,68,30.00,10.0,WSW,8.1,-,N/A,,Clear,240,2013-09-29 22:37:00
6:58 PM,58.5,49.6,72,30.00,10.0,WSW,8.1,-,N/A,,Clear,250,2013-09-29 22:58:00
7:18 PM,57.2,50.2,77,30.00,10.0,WSW,8.1,-,N/A,,Clear,250,2013-09-29 23:18:00
7:37 PM,56.5,50.2,79,30.00,10.0,WSW,8.1,-,N/A,,Clear,250,2013-09-29 23:37:00
7:58 PM,55.8,50.9,84,30.00,10.0,WSW,6.9,-,N/A,,Clear,240,2013-09-29 23:58:00
8:18 PM,55.6,51.4,86,30.00,10.0,WSW,8.1,-,N/A,,Clear,250,2013-09-30 00:18:00
8:37 PM,55.4,51.1,85,30.00,10.0,WSW,6.9,-,N/A,,Clear,250,2013-09-30 00:37:00
8:58 PM,54.5,51.1,88,30.01,10.0,WSW,6.9,-,N/A,,Clear,250,2013-09-30 00:58:00
9:18 PM,54.5,51.3,89,30.00,10.0,WSW,8.1,-,N/A,,Clear,240,2013-09-30 01:18:00
9:37 PM,54.5,51.3,89,30.00,10.0,WSW,8.1,-,N/A,,Clear,250,2013-09-30 01:37:00
9:58 PM,53.4,51.3,92,30.01,10.0,WSW,6.9,-,N/A,,Clear,250,2013-09-30 01:58:00
10:18 PM,53.6,51.6,93,30.01,10.0,WSW,8.1,-,N/A,,Clear,250,2013-09-30 02:18:00
10:37 PM,53.1,51.1,93,30.01,10.0,WSW,5.8,-,N/A,,Clear,240,2013-09-30 02:37:00
10:58 PM,52.2,50.9,95,30.01,10.0,WSW,5.8,-,N/A,,Clear,250,2013-09-30 02:58:00
11:17 PM,51.8,50.5,95,30.00,10.0,West,4.6,-,N/A,,Clear,260,2013-09-30 03:17:00
11:38 PM,51.1,50.4,97,30.00,10.0,WSW,5.8,-,N/A,,Clear,250,2013-09-30 03:38:00
11:57 PM,50.9,50.0,97,30.00,10.0,WSW,4.6,-,N/A,,Clear,240,2013-09-30 03:57:00